Location: Geremba
(10.4250°N, 67.2394°W)
Time: 00:06:03
(UTC+00:00)

Cosmos 2218 Rocket - Pass Details

Date: 17 August 2024
Orbit: 956 x 1005 km, 82.9° (Epoch: 16 September)

Event Time Altitude Azimuth Distance (km) Brightness Sun altitude
Rises 23:38:13 0° 223° (SW) 3,647 7.4 -13.2°
Reaches altitude 10° 23:42:02 10° 246° (WSW) 2,710 7.1 -14.1°
Maximum altitude 23:45:12 14° 277° (W) 2,409 7.3 -14.9°
Drops below altitude 10° 23:48:24 10° 308° (NW) 2,727 7.5 -15.6°
Sets 23:52:17 0° 332° (NNW) 3,685 7.7 -16.5°
